TimeCDT,TemperatureF,Dew PointF,Humidity,Sea Level PressureIn,VisibilityMPH,Wind Direction,Wind SpeedMPH,Gust SpeedMPH,PrecipitationIn,Events,Conditions,WindDirDegrees,DateUTC
12:54 AM,71.1,64.0,78,30.17,10.0,ESE,3.5,-,N/A,,Partly Cloudy,120,2013-07-30 05:54:00
1:54 AM,70.0,64.9,84,30.17,10.0,East,3.5,-,0.00,Rain,Light Rain,100,2013-07-30 06:54:00
2:54 AM,70.0,64.0,81,30.17,10.0,Calm,Calm,-,0.00,,Scattered Clouds,0,2013-07-30 07:54:00
3:54 AM,70.0,64.0,81,30.17,10.0,Calm,Calm,-,N/A,,Clear,0,2013-07-30 08:54:00
4:54 AM,69.1,64.0,84,30.17,10.0,Calm,Calm,-,N/A,,Clear,0,2013-07-30 09:54:00
5:54 AM,68.0,63.0,84,30.17,10.0,ESE,4.6,-,N/A,,Clear,110,2013-07-30 10:54:00
6:54 AM,69.1,63.0,81,30.16,10.0,East,4.6,-,N/A,,Clear,90,2013-07-30 11:54:00
7:54 AM,71.1,62.1,73,30.17,10.0,SE,3.5,-,N/A,,Clear,140,2013-07-30 12:54:00
8:54 AM,72.0,61.0,68,30.17,10.0,SE,6.9,-,N/A,,Clear,130,2013-07-30 13:54:00
9:54 AM,73.9,62.1,66,30.17,10.0,SE,3.5,-,N/A,,Mostly Cloudy,140,2013-07-30 14:54:00
10:54 AM,73.9,61.0,64,30.16,10.0,SE,5.8,-,N/A,,Clear,140,2013-07-30 15:54:00
11:54 AM,73.9,61.0,64,30.17,10.0,South,6.9,-,N/A,,Mostly Cloudy,170,2013-07-30 16:54:00
12:54 PM,70.0,64.0,81,30.17,3.0,South,5.8,-,0.02,Rain,Rain,180,2013-07-30 17:54:00
1:03 PM,69.8,64.4,83,30.18,1.8,SSW,6.9,-,0.03,Rain,Heavy Rain,200,2013-07-30 18:03:00
1:09 PM,68.0,64.4,88,30.17,0.8,South,4.6,-,0.13,Rain,Heavy Rain,190,2013-07-30 18:09:00
1:14 PM,68.0,64.4,88,30.17,1.0,SSE,3.5,-,0.18,Rain,Heavy Rain,150,2013-07-30 18:14:00
1:23 PM,68.0,64.4,88,30.16,2.0,ESE,3.5,-,0.23,Rain,Heavy Rain,110,2013-07-30 18:23:00
1:37 PM,68.0,64.4,88,30.16,1.5,Calm,Calm,-,0.33,Rain,Heavy Rain,0,2013-07-30 18:37:00
1:49 PM,68.0,66.2,94,30.15,3.0,SE,3.5,-,0.38,Rain,Heavy Rain,140,2013-07-30 18:49:00
1:54 PM,68.0,66.0,93,30.15,2.5,SE,3.5,-,0.40,Rain,Heavy Rain,130,2013-07-30 18:54:00
2:10 PM,69.8,66.2,88,30.15,4.0,ESE,4.6,-,0.04,Rain,Rain,120,2013-07-30 19:10:00
2:17 PM,69.8,66.2,88,30.15,4.0,SE,4.6,-,0.04,Rain,Light Rain,130,2013-07-30 19:17:00
2:29 PM,69.8,66.2,88,30.15,5.0,SE,4.6,-,0.05,Rain,Light Rain,140,2013-07-30 19:29:00
2:54 PM,69.1,66.9,93,30.14,2.0,SE,3.5,-,0.06,Rain,Light Rain,130,2013-07-30 19:54:00
3:54 PM,70.0,66.9,90,30.11,2.0,ESE,8.1,-,0.08,Rain,Rain,120,2013-07-30 20:54:00
4:01 PM,69.8,66.2,88,30.12,4.0,SE,6.9,-,0.01,Rain,Light Rain,130,2013-07-30 21:01:00
4:54 PM,69.1,66.9,93,30.10,6.0,SE,8.1,-,0.06,Rain,Light Rain,130,2013-07-30 21:54:00
5:54 PM,70.0,66.9,90,30.09,4.0,ESE,4.6,-,0.06,Rain,Light Rain,120,2013-07-30 22:54:00
6:54 PM,70.0,66.9,90,30.09,9.0,SE,6.9,-,0.01,,Overcast,140,2013-07-30 23:54:00
7:17 PM,69.8,66.2,88,30.09,9.0,SE,6.9,-,N/A,,Overcast,140,2013-07-31 00:17:00
7:47 PM,69.8,66.2,88,30.09,0.0,ESE,6.9,-,N/A,Fog,Fog,120,2013-07-31 00:47:00
7:54 PM,69.1,66.9,93,30.08,4.0,ESE,8.1,-,0.00,Rain,Light Rain,120,2013-07-31 00:54:00
8:54 PM,70.0,66.9,90,30.07,4.0,Calm,Calm,-,0.00,,Overcast,0,2013-07-31 01:54:00
9:32 PM,69.8,66.2,88,30.08,8.0,SE,4.6,-,N/A,,Overcast,140,2013-07-31 02:32:00
9:54 PM,70.0,68.0,93,30.07,5.0,SE,5.8,-,N/A,,Overcast,140,2013-07-31 02:54:00
10:30 PM,69.8,68.0,94,30.08,8.0,ESE,6.9,-,0.00,Rain,Light Rain,110,2013-07-31 03:30:00
10:54 PM,70.0,68.0,93,30.08,5.0,Calm,Calm,-,0.00,Rain,Light Rain,0,2013-07-31 03:54:00
11:54 PM,70.0,68.0,93,30.08,8.0,SSE,4.6,-,0.01,,Overcast,150,2013-07-31 04:54:00